| time (UTC) | temp F | wind direction | speed MPH | gust MPH | rain 1hr in | rain 24hr in | rain mn in | humidity % | barometer mb |
| 20260503223756 | 65 | 74 | 0.0 | 0.0 | 0.00 | 0.00 | 0.00 | 30 | 1016.0 |
| 20260503223253 | 65 | 80 | 0.0 | 1.0 | 0.00 | 0.00 | 0.00 | 29 | 1016.0 |
| 20260503222749 | 66 | 94 | 1.0 | 2.0 | 0.00 | 0.00 | 0.00 | 29 | 1016.2 |
| 20260503222247 | 65 | 76 | 0.0 | 0.0 | 0.00 | 0.00 | 0.00 | 29 | 1016.1 |
| 20260503221745 | 65 | 77 | 0.0 | 1.0 | 0.00 | 0.00 | 0.00 | 30 | 1016.4 |
| 20260503221243 | 66 | 64 | 0.0 | 1.0 | 0.00 | 0.00 | 0.00 | 30 | 1016.3 |
| 20260503220739 | 67 | 88 | 1.0 | 2.0 | 0.00 | 0.00 | 0.00 | 28 | 1016.2 |
| 20260503220236 | 67 | 86 | 0.0 | 1.0 | 0.00 | 0.00 | 0.00 | 28 | 1016.3 |
| 20260503215733 | 66 | 74 | 0.0 | 0.0 | 0.00 | 0.00 | 0.00 | 27 | 1016.2 |
| 20260503215231 | 66 | 71 | 0.0 | 1.0 | 0.00 | 0.00 | 0.00 | 27 | 1016.2 |
| 20260503214729 | 66 | 65 | 1.0 | 1.0 | 0.00 | 0.00 | 0.00 | 28 | 1016.1 |
| 20260503214225 | 66 | 88 | 1.0 | 1.0 | 0.00 | 0.00 | 0.00 | 28 | 1016.0 |
| 20260503213723 | 67 | 71 | 1.0 | 1.0 | 0.00 | 0.00 | 0.00 | 27 | 1015.9 |
| 20260503213220 | 66 | 67 | 1.0 | 1.0 | 0.00 | 0.00 | 0.00 | 27 | 1016.0 |
| 20260503212717 | 66 | 52 | 1.0 | 1.0 | 0.00 | 0.00 | 0.00 | 27 | 1016.0 |
| 20260503212215 | 67 | 84 | 1.0 | 1.0 | 0.00 | 0.00 | 0.00 | 27 | 1016.1 |
| 20260503211712 | 68 | 71 | 1.0 | 2.0 | 0.00 | 0.00 | 0.00 | 26 | 1015.9 |
| 20260503211208 | 67 | 99 | 1.0 | 1.0 | 0.00 | 0.00 | 0.00 | 27 | 1016.1 |
| 20260503210703 | 67 | 82 | 1.0 | 2.0 | 0.00 | 0.00 | 0.00 | 27 | 1016.4 |
| 20260503210201 | 66 | 85 | 0.0 | 1.0 | 0.00 | 0.00 | 0.00 | 29 | 1016.1 |
| 20260503205655 | 65 | 78 | 1.0 | 1.0 | 0.00 | 0.00 | 0.00 | 26 | 1016.0 |
| 20260503205152 | 65 | 62 | 1.0 | 2.0 | 0.00 | 0.00 | 0.00 | 29 | 1016.0 |
| 20260503204649 | 66 | 48 | 1.0 | 1.0 | 0.00 | 0.00 | 0.00 | 26 | 1016.1 |
| 20260503204147 | 68 | 69 | 0.0 | 1.0 | 0.00 | 0.00 | 0.00 | 27 | 1016.1 |
| 20260503203643 | 67 | 59 | 1.0 | 1.0 | 0.00 | 0.00 | 0.00 | 26 | 1015.8 |
| 20260503203141 | 65 | 92 | 1.0 | 1.0 | 0.00 | 0.00 | 0.00 | 26 | 1015.8 |
| 20260503202638 | 65 | 24 | 1.0 | 2.0 | 0.00 | 0.00 | 0.00 | 28 | 1015.9 |
| 20260503202136 | 64 | 207 | 3.0 | 3.0 | 0.00 | 0.00 | 0.00 | 27 | 1015.9 |
| 20260503201634 | 65 | 78 | 1.0 | 1.0 | 0.00 | 0.00 | 0.00 | 29 | 1016.1 |
| 20260503201132 | 66 | 96 | 1.0 | 1.0 | 0.00 | 0.00 | 0.00 | 26 | 1016.1 |
| 20260503200628 | 67 | 35 | 1.0 | 1.0 | 0.00 | 0.00 | 0.00 | 26 | 1016.2 |
| 20260503200124 | 67 | 77 | 0.0 | 1.0 | 0.00 | 0.00 | 0.00 | 25 | 1016.3 |
| 20260503195621 | 66 | 3 | 2.0 | 2.0 | 0.00 | 0.00 | 0.00 | 26 | 1016.5 |
| 20260503195118 | 66 | 59 | 2.0 | 3.0 | 0.00 | 0.00 | 0.00 | 27 | 1016.7 |
| 20260503194616 | 68 | 56 | 2.0 | 2.0 | 0.00 | 0.00 | 0.00 | 25 | 1016.5 |
| 20260503194116 | 68 | 231 | 4.0 | 4.0 | 0.00 | 0.00 | 0.00 | 27 | 1016.5 |
| 20260503193613 | 65 | 59 | 1.0 | 1.0 | 0.00 | 0.00 | 0.00 | 28 | 1016.7 |
| 20260503193108 | 64 | 97 | 3.0 | 3.0 | 0.00 | 0.00 | 0.00 | 28 | 1016.7 |
| 20260503192604 | 64 | 84 | 1.0 | 2.0 | 0.00 | 0.00 | 0.00 | 28 | 1016.7 |
| 20260503192100 | 67 | 90 | 1.0 | 1.0 | 0.00 | 0.00 | 0.00 | 25 | 1016.9 |
| 20260503191557 | 66 | 78 | 1.0 | 1.0 | 0.00 | 0.00 | 0.00 | 27 | 1017.1 |
| 20260503191054 | 64 | 71 | 1.0 | 1.0 | 0.00 | 0.00 | 0.00 | 26 | 1017.1 |
| 20260503190551 | 65 | 303 | 5.0 | 6.0 | 0.00 | 0.00 | 0.00 | 25 | 1017.3 |
| 20260503190048 | 66 | 47 | 2.0 | 3.0 | 0.00 | 0.00 | 0.00 | 27 | 1017.2 |
| 20260503185544 | 65 | 46 | 1.0 | 1.0 | 0.00 | 0.00 | 0.00 | 28 | 1017.1 |
| 20260503185044 | 64 | 30 | 4.0 | 8.0 | 0.00 | 0.00 | 0.00 | 27 | 1017.0 |
| 20260503184540 | 64 | 160 | 2.0 | 3.0 | 0.00 | 0.00 | 0.00 | 28 | 1017.4 |
| 20260503184037 | 64 | 87 | 1.0 | 2.0 | 0.00 | 0.00 | 0.00 | 28 | 1017.3 |
| 20260503183534 | 63 | 61 | 2.0 | 2.0 | 0.00 | 0.00 | 0.00 | 28 | 1017.4 |
| 20260503183031 | 64 | 199 | 2.0 | 3.0 | 0.00 | 0.00 | 0.00 | 28 | 1017.3 |
| 20260503182529 | 64 | 57 | 1.0 | 1.0 | 0.00 | 0.00 | 0.00 | 27 | 1017.3 |
| 20260503182027 | 64 | 17 | 2.0 | 2.0 | 0.00 | 0.00 | 0.00 | 27 | 1017.3 |
| 20260503181523 | 64 | 352 | 2.0 | 3.0 | 0.00 | 0.00 | 0.00 | 25 | 1017.6 |
| 20260503181020 | 63 | 273 | 3.0 | 4.0 | 0.00 | 0.00 | 0.00 | 28 | 1017.4 |
| 20260503180517 | 63 | 89 | 1.0 | 1.0 | 0.00 | 0.00 | 0.00 | 26 | 1017.4 |
| 20260503180014 | 63 | 92 | 1.0 | 2.0 | 0.00 | 0.00 | 0.00 | 28 | 1017.5 |
| 20260503175512 | 62 | 85 | 1.0 | 1.0 | 0.00 | 0.00 | 0.00 | 28 | 1017.5 |
| 20260503175008 | 62 | 86 | 1.0 | 1.0 | 0.00 | 0.00 | 0.00 | 27 | 1017.3 |
| 20260503174506 | 64 | 64 | 1.0 | 1.0 | 0.00 | 0.00 | 0.00 | 27 | 1017.4 |
| 20260503174002 | 64 | 73 | 0.0 | 1.0 | 0.00 | 0.00 | 0.00 | 26 | 1017.7 |
| 20260503173457 | 63 | 19 | 2.0 | 3.0 | 0.00 | 0.00 | 0.00 | 27 | 1017.7 |
| 20260503172954 | 62 | 67 | 2.0 | 2.0 | 0.00 | 0.00 | 0.00 | 30 | 1017.8 |
| 20260503172452 | 62 | 77 | 2.0 | 2.0 | 0.00 | 0.00 | 0.00 | 29 | 1017.7 |
| 20260503171948 | 62 | 77 | 1.0 | 2.0 | 0.00 | 0.00 | 0.00 | 30 | 1017.7 |
| 20260503171445 | 61 | 48 | 3.0 | 4.0 | 0.00 | 0.00 | 0.00 | 29 | 1017.9 |
| 20260503170942 | 61 | 98 | 1.0 | 1.0 | 0.00 | 0.00 | 0.00 | 30 | 1017.8 |
| 20260503170438 | 60 | 61 | 2.0 | 2.0 | 0.00 | 0.00 | 0.00 | 30 | 1018.0 |
| 20260503150831 | 56 | 63 | 1.0 | 2.0 | 0.00 | 0.00 | 0.00 | 36 | 1018.5 |
| 20260503150327 | 57 | 35 | 2.0 | 2.0 | 0.00 | 0.00 | 0.00 | 37 | 1018.5 |
| 20260503140251 | 55 | 50 | 1.0 | 1.0 | 0.00 | 0.00 | 0.00 | 41 | 1018.4 |
| 20260503131221 | 53 | 42 | 2.0 | 3.0 | 0.00 | 0.00 | 0.00 | 45 | 1018.0 |
| 20260503130718 | 53 | 72 | 1.0 | 1.0 | 0.00 | 0.00 | 0.00 | 47 | 1018.2 |
| 20260503130215 | 52 | 75 | 1.0 | 1.0 | 0.00 | 0.00 | 0.00 | 47 | 1018.1 |
| 20260503120141 | 49 | 81 | 0.0 | 0.0 | 0.00 | 0.00 | 0.00 | 55 | 1017.4 |
| 20260503110609 | 49 | 63 | 1.0 | 1.0 | 0.00 | 0.00 | 0.00 | 52 | 1017.0 |
| 20260503110106 | 49 | 74 | 0.0 | 1.0 | 0.00 | 0.00 | 0.00 | 53 | 1016.9 |
| 20260503090455 | 50 | 67 | 0.0 | 0.0 | 0.00 | 0.00 | 0.00 | 60 | 1014.9 |
| 20260503081422 | 51 | 71 | 1.0 | 1.0 | 0.00 | 0.00 | 0.00 | 64 | 1014.3 |
| 20260503080919 | 51 | 62 | 0.0 | 1.0 | 0.00 | 0.00 | 0.00 | 65 | 1014.1 |
| 20260503080416 | 51 | 75 | 1.0 | 1.0 | 0.00 | 0.00 | 0.00 | 68 | 1014.1 |
| 20260503072852 | 50 | 76 | 0.0 | 0.0 | 0.00 | 0.00 | 0.00 | 72 | 1013.8 |
| 20260503072349 | 50 | 73 | 0.0 | 1.0 | 0.00 | 0.00 | 0.00 | 73 | 1013.8 |
| 20260503071845 | 50 | 76 | 0.0 | 0.0 | 0.00 | 0.00 | 0.00 | 73 | 1013.7 |
| 20260503071343 | 50 | 76 | 0.0 | 0.0 | 0.00 | 0.00 | 0.00 | 73 | 1013.5 |
| 20260503070839 | 51 | 75 | 0.0 | 0.0 | 0.00 | 0.00 | 0.00 | 71 | 1013.7 |
| 20260503070337 | 50 | 75 | 0.0 | 0.0 | 0.00 | 0.00 | 0.00 | 71 | 1013.4 |
| 20260503060302 | 46 | 77 | 0.0 | 0.0 | 0.00 | 0.00 | 0.00 | 86 | 1013.3 |
| 20260503054749 | 46 | 80 | 0.0 | 0.0 | 0.00 | 0.00 | 0.00 | 88 | 1013.3 |
| 20260503054246 | 45 | 81 | 0.0 | 0.0 | 0.00 | 0.00 | 0.00 | 88 | 1013.1 |
| 20260503053744 | 45 | 81 | 0.0 | 0.0 | 0.00 | 0.00 | 0.00 | 89 | 1013.3 |
| 20260503053242 | 45 | 81 | 0.0 | 0.0 | 0.00 | 0.00 | 0.00 | 88 | 1013.2 |
| 20260503052738 | 45 | 81 | 0.0 | 0.0 | 0.00 | 0.00 | 0.00 | 88 | 1013.0 |
| 20260503052235 | 45 | 81 | 0.0 | 0.0 | 0.00 | 0.00 | 0.00 | 88 | 1013.2 |
| 20260503051730 | 46 | 81 | 0.0 | 0.0 | 0.00 | 0.00 | 0.00 | 88 | 1013.3 |
| 20260503051228 | 46 | 81 | 0.0 | 0.0 | 0.00 | 0.00 | 0.00 | 87 | 1013.1 |
| 20260503050724 | 46 | 84 | 0.0 | 0.0 | 0.00 | 0.00 | 0.00 | 87 | 1013.1 |
| 20260503050221 | 46 | 82 | 0.0 | 0.0 | 0.00 | 0.00 | 0.00 | 86 | 1013.1 |
| 20260503045718 | 47 | 82 | 0.0 | 0.0 | 0.00 | 0.00 | 0.00 | 86 | 1013.1 |
| 20260503045216 | 46 | 82 | 0.0 | 0.0 | 0.00 | 0.00 | 0.00 | 86 | 1013.3 |
| 20260503044712 | 46 | 82 | 0.0 | 0.0 | 0.00 | 0.00 | 0.00 | 87 | 1013.4 |
| 20260503044210 | 46 | 82 | 0.0 | 0.0 | 0.00 | 0.00 | 0.00 | 88 | 1013.4 |
| 20260503043706 | 46 | 82 | 0.0 | 0.0 | 0.00 | 0.00 | 0.00 | 89 | 1013.4 |
| 20260503043204 | 46 | 82 | 0.0 | 0.0 | 0.00 | 0.00 | 0.00 | 89 | 1013.5 |
| 20260503042659 | 46 | 79 | 0.0 | 0.0 | 0.00 | 0.00 | 0.00 | 89 | 1013.2 |
| 20260503042156 | 47 | 79 | 0.0 | 0.0 | 0.00 | 0.00 | 0.00 | 89 | 1013.3 |
| 20260503041652 | 47 | 79 | 0.0 | 0.0 | 0.00 | 0.00 | 0.00 | 89 | 1013.3 |
| 20260503041150 | 47 | 82 | 0.0 | 0.0 | 0.00 | 0.00 | 0.00 | 89 | 1013.4 |
| 20260503040647 | 47 | 82 | 0.0 | 0.0 | 0.00 | 0.00 | 0.00 | 88 | 1013.5 |
| 20260503040145 | 48 | 79 | 0.0 | 0.0 | 0.00 | 0.00 | 0.00 | 88 | 1013.2 |
| 20260503035641 | 48 | 80 | 0.0 | 0.0 | 0.00 | 0.01 | 0.01 | 88 | 1013.2 |
| 20260503035139 | 47 | 80 | 0.0 | 0.0 | 0.00 | 0.01 | 0.01 | 88 | 1013.3 |
| 20260503034636 | 48 | 80 | 0.0 | 0.0 | 0.00 | 0.01 | 0.01 | 89 | 1013.5 |
| 20260503034133 | 48 | 80 | 0.0 | 0.0 | 0.00 | 0.01 | 0.01 | 88 | 1013.5 |
| 20260503033630 | 48 | 80 | 0.0 | 0.0 | 0.00 | 0.01 | 0.01 | 88 | 1013.4 |
| 20260503033128 | 48 | 80 | 0.0 | 0.0 | 0.00 | 0.01 | 0.01 | 87 | 1013.2 |
| 20260503032626 | 48 | 80 | 0.0 | 0.0 | 0.00 | 0.01 | 0.01 | 87 | 1013.1 |
| 20260503032124 | 48 | 80 | 0.0 | 0.0 | 0.00 | 0.01 | 0.01 | 87 | 1013.1 |
| 20260503031622 | 49 | 80 | 0.0 | 0.0 | 0.00 | 0.01 | 0.01 | 87 | 1013.3 |
| 20260503031119 | 49 | 80 | 0.0 | 0.0 | 0.00 | 0.01 | 0.01 | 87 | 1013.1 |
| 20260503030615 | 49 | 80 | 0.0 | 0.0 | 0.00 | 0.01 | 0.01 | 86 | 1013.0 |
| 20260503030112 | 49 | 79 | 0.0 | 0.0 | 0.00 | 0.01 | 0.01 | 85 | 1013.1 |
| 20260503025609 | 49 | 79 | 0.0 | 0.0 | 0.00 | 0.01 | 0.01 | 83 | 1013.3 |
| 20260503025107 | 49 | 79 | 0.0 | 0.0 | 0.00 | 0.01 | 0.01 | 83 | 1013.4 |
| 20260503024603 | 49 | 80 | 0.0 | 0.0 | 0.00 | 0.01 | 0.01 | 83 | 1013.2 |
| 20260503024100 | 49 | 80 | 0.0 | 0.0 | 0.00 | 0.01 | 0.01 | 82 | 1013.2 |
| 20260503023556 | 50 | 81 | 0.0 | 0.0 | 0.00 | 0.01 | 0.01 | 83 | 1013.3 |
| 20260503023054 | 50 | 81 | 0.0 | 0.0 | 0.00 | 0.01 | 0.01 | 83 | 1013.3 |
| 20260503022550 | 50 | 81 | 0.0 | 0.0 | 0.00 | 0.01 | 0.01 | 83 | 1013.2 |
| 20260503022044 | 50 | 81 | 0.0 | 0.0 | 0.00 | 0.01 | 0.01 | 82 | 1013.3 |
| 20260503021542 | 50 | 81 | 0.0 | 0.0 | 0.00 | 0.01 | 0.01 | 83 | 1013.3 |
| 20260503021038 | 50 | 81 | 0.0 | 0.0 | 0.00 | 0.01 | 0.01 | 83 | 1013.1 |
| 20260503020536 | 50 | 85 | 0.0 | 0.0 | 0.00 | 0.01 | 0.01 | 84 | 1013.2 |
| 20260503020033 | 50 | 80 | 0.0 | 0.0 | 0.00 | 0.01 | 0.01 | 83 | 1013.1 |
| 20260503015529 | 51 | 81 | 0.0 | 0.0 | 0.00 | 0.01 | 0.01 | 83 | 1013.4 |
| 20260503015026 | 51 | 81 | 0.0 | 0.0 | 0.00 | 0.01 | 0.01 | 83 | 1013.2 |
| 20260503014522 | 51 | 81 | 0.0 | 0.0 | 0.00 | 0.01 | 0.01 | 82 | 1013.2 |
| 20260503014021 | 51 | 81 | 0.0 | 0.0 | 0.00 | 0.01 | 0.01 | 82 | 1013.1 |
| 20260503013517 | 51 | 78 | 0.0 | 0.0 | 0.00 | 0.01 | 0.01 | 81 | 1013.1 |
| 20260503013015 | 51 | 80 | 0.0 | 0.0 | 0.00 | 0.01 | 0.01 | 82 | 1013.2 |
| 20260503012513 | 51 | 80 | 0.0 | 0.0 | 0.00 | 0.01 | 0.01 | 81 | 1013.0 |
| 20260503012009 | 51 | 80 | 0.0 | 0.0 | 0.00 | 0.01 | 0.01 | 81 | 1013.2 |
| 20260503011506 | 51 | 81 | 0.0 | 0.0 | 0.00 | 0.01 | 0.01 | 79 | 1012.8 |
| 20260503011003 | 51 | 81 | 0.0 | 0.0 | 0.00 | 0.01 | 0.01 | 78 | 1012.8 |
| 20260503010459 | 51 | 77 | 0.0 | 0.0 | 0.00 | 0.01 | 0.01 | 76 | 1012.8 |
| 20260503005956 | 52 | 76 | 0.0 | 0.0 | 0.00 | 0.01 | 0.01 | 75 | 1012.7 |
| 20260503005453 | 52 | 76 | 0.0 | 0.0 | 0.00 | 0.01 | 0.01 | 75 | 1012.7 |
| 20260503004950 | 52 | 77 | 0.0 | 0.0 | 0.00 | 0.01 | 0.01 | 74 | 1012.6 |
| 20260503004447 | 52 | 76 | 0.0 | 0.0 | 0.00 | 0.01 | 0.01 | 73 | 1012.5 |
| 20260503003945 | 52 | 81 | 0.0 | 0.0 | 0.00 | 0.01 | 0.01 | 73 | 1012.5 |
| 20260503003441 | 52 | 78 | 0.0 | 0.0 | 0.00 | 0.01 | 0.01 | 72 | 1012.3 |
| 20260503002938 | 52 | 78 | 0.0 | 0.0 | 0.00 | 0.01 | 0.01 | 71 | 1012.5 |
| 20260503002435 | 53 | 78 | 0.0 | 0.0 | 0.00 | 0.01 | 0.01 | 70 | 1012.4 |
| 20260503001932 | 53 | 79 | 0.0 | 0.0 | 0.00 | 0.01 | 0.01 | 71 | 1012.4 |
| 20260503001428 | 53 | 79 | 0.0 | 0.0 | 0.00 | 0.01 | 0.01 | 69 | 1012.5 |
| 20260503000926 | 53 | 78 | 0.0 | 0.0 | 0.00 | 0.01 | 0.01 | 69 | 1012.3 |
| 20260503000423 | 54 | 78 | 0.0 | 0.0 | 0.00 | 0.01 | 0.01 | 67 | 1012.2 |
| 20260502235920 | 54 | 78 | 0.0 | 0.0 | 0.00 | 0.01 | 0.01 | 68 | 1012.0 |
| 20260502235417 | 54 | 79 | 0.0 | 0.0 | 0.00 | 0.01 | 0.01 | 68 | 1012.0 |
| 20260502234914 | 54 | 75 | 0.0 | 0.0 | 0.00 | 0.01 | 0.01 | 66 | 1012.2 |
| 20260502234410 | 55 | 74 | 0.0 | 0.0 | 0.00 | 0.01 | 0.01 | 64 | 1012.0 |
| 20260502233908 | 55 | 74 | 0.0 | 0.0 | 0.00 | 0.01 | 0.01 | 61 | 1012.0 |
| 20260502233403 | 55 | 74 | 0.0 | 0.0 | 0.00 | 0.01 | 0.01 | 60 | 1011.9 |
| 20260502232900 | 55 | 75 | 0.0 | 0.0 | 0.00 | 0.01 | 0.01 | 58 | 1011.9 |
| 20260502232357 | 56 | 78 | 0.0 | 0.0 | 0.00 | 0.01 | 0.01 | 57 | 1012.0 |
| 20260502231853 | 56 | 81 | 0.0 | 0.0 | 0.00 | 0.01 | 0.01 | 54 | 1011.6 |
| 20260502231351 | 56 | 79 | 0.0 | 0.0 | 0.00 | 0.01 | 0.01 | 53 | 1011.7 |
| 20260502230849 | 56 | 73 | 0.0 | 0.0 | 0.00 | 0.01 | 0.01 | 52 | 1011.9 |
| 20260502230347 | 57 | 73 | 0.0 | 1.0 | 0.00 | 0.01 | 0.01 | 51 | 1011.8 |
| 20260502225844 | 57 | 77 | 0.0 | 0.0 | 0.00 | 0.01 | 0.01 | 52 | 1012.0 |
| 20260502225340 | 57 | 74 | 0.0 | 0.0 | 0.00 | 0.01 | 0.01 | 49 | 1011.7 |
| 20260502224837 | 57 | 71 | 0.0 | 0.0 | 0.00 | 0.01 | 0.01 | 49 | 1011.7 |
| 20260502224333 | 57 | 78 | 0.0 | 0.0 | 0.00 | 0.01 | 0.01 | 49 | 1011.8 |